Location: Tamazert
(32.6352°N, 5.2072°W)
Time: 04:03:36
(UTC+00:00)

Vanguard 2 Rocket - Pass Details

Date: 06 October 2022
Orbit: 555 x 3321 km, 32.9° (Epoch: 05 December)

Event Time Altitude Azimuth Distance (km) Brightness Sun altitude
Rises 21:43:10 0° 244° (WSW) 7,281 11.8 -46.5°
Reaches altitude 10° 21:48:18 10° 243° (WSW) 6,147 11.3 -47.4°
Enters shadow 22:01:52 53° 231° (SW) 3,155 9.4 -49.8°
Maximum altitude 22:06:56 75° 163° (SSE) 2,480 - -50.6°
Drops below altitude 10° 22:18:07 10° 80° (E) 3,924 - -52.5°
Sets 22:20:39 0° 78° (ENE) 4,618 - -52.9°
